This is the latest recevied weather packets stored in our database for station/object OK1ZDJ-13. If no packets are shown the sender has not sent any weather packets the latest 10 day(s).
| Time | Temp. | Humidity | Pressure | Rain* | Wind** | Luminosity | Snow |
|---|---|---|---|---|---|---|---|
| 1777951084 | 14.44° C | 58% | 1010.1 hPa | - | - | - | - |
| 1777950484 | 14.44° C | 62% | 1010.2 hPa | - | - | - | - |
| 1777949884 | 14.44° C | 65% | 1010.8 hPa | - | - | - | - |
| 1777949284 | 13.89° C | 64% | 1011.2 hPa | - | - | - | - |
| 1777948684 | 13.89° C | 65% | 1011.3 hPa | - | - | - | - |
| 1777948084 | 13.89° C | 68% | 1011 hPa | - | - | - | - |
| 1777946884 | 14.44° C | 64% | 1010.9 hPa | - | - | - | - |
| 1777945684 | 14.44° C | 65% | 1011 hPa | - | - | - | - |
| 1777943884 | 14.44° C | 69% | 1011.7 hPa | - | - | - | - |
| 1777943284 | 14.44° C | 68% | 1011.9 hPa | - | - | - | - |
| 1777942684 | 13.89° C | 68% | 1011.9 hPa | - | - | - | - |
| 1777942084 | 13.89° C | 70% | 1012.2 hPa | - | - | - | - |
| 1777941485 | 13.89° C | 70% | 1012.3 hPa | - | - | - | - |
| 1777940885 | 13.89° C | 70% | 1012.6 hPa | - | - | - | - |
| 1777940284 | 13.89° C | 71% | 1012.5 hPa | - | - | - | - |
| 1777939685 | 13.89° C | 70% | 1012.5 hPa | - | - | - | - |
| 1777939084 | 13.89° C | 71% | 1012.8 hPa | - | - | - | - |
| 1777937884 | 13.89° C | 71% | 1012.9 hPa | - | - | - | - |
| 1777937284 | 13.89° C | 71% | 1012.6 hPa | - | - | - | - |
| 1777936684 | 13.89° C | 70% | 1012.5 hPa | - | - | - | - |
| 1777936084 | 13.89° C | 71% | 1012.5 hPa | - | - | - | - |
| 1777935484 | 13.33° C | 71% | 1012.4 hPa | - | - | - | - |
| 1777934884 | 13.33° C | 71% | 1012.4 hPa | - | - | - | - |
| 1777934284 | 13.33° C | 72% | 1012.5 hPa | - | - | - | - |
| 1777933684 | 13.33° C | 69% | 1012.6 hPa | - | - | - | - |
* Rain since midnight (hover to see other rain measurements)
** Current wind speed in m/s (hover to see current wind gust speed)